星链-6214 (STARLINK-6214 )

导读 | 星芒AI

STARLINK-6214 是 SpaceX Starlink 项目中的一颗低轨通信卫星,属于第 21 批部署的 Starlink 卫星群。该卫星于 2022 年 9 月发射,运行在约 550 公里的近地轨道上,旨在为全球用户提供高速互联网服务。Starlink 卫星采用先进相控阵天线和激光通信技术,具备高带宽和低延迟特性。STARLINK-6214 在轨运行稳定,是 SpaceX 构建全球卫星互联网网络的重要组成部分。

基本信息
目录编号:
56480
目录名称:
STARLINK-6214
国际标识:
2023-064AJ
轨道中心:
EARTH
卫星名称:
星链-6214
卫星全名:
星链-6214 (STARLINK-6214 )
卫星状态:
在轨 (已飞行956 天)
发射日期:
2023-05-10 UTC
国别 :
美国 (US)
星等 :
--
轨道信息
数据来源 国际轨道数据
星历时间: 2025-12-21T14:42:14+0800
12小时前
查看轨道信息
半长轴: 6890.086km
偏心率: 0.0007396
轨道倾角: 69.995°
近地点辐角 285.516°
升交点赤经 297.080°
平近点角 74.520°
近地点: 506.853km
远地点: 517.045km
周期: 94.863分钟
每日圈数: 15.179792
详细信息
固有亮度:
5
最大亮度:
2.5
卫星平台:
Starlink v1.5
覆盖范围:
全球
运营商:
太空探索技术公司
运营商所在国:
美国
制造商(研发单位):
太空探索技术公司
制造商所在国:
美国
使用方式:
暂无
卫星简介
星链(Starlink)计划是由太空探索技术公司(SpaceX)提出的一个巨型低轨卫星互联网星座项目,计划在2019年至2024年间在太空搭建由约1.2万颗卫星组成的“星链”网络,其中1584颗将部署在地球上空550千米处的近地轨道,并从2020年开始工作。该卫星仍在工作。
2D轨道图
3D轨道图
轨道高度分析图
轨道倾角分析图
轨道综合分析图
查看轨道综合分析图